STARLINK-31008, 58636

Orbit data source: Space-Track

STARLINK-31008, 58636 is a payload satellite owned by SpaceX/Seattle (US) in LEO that was launched on Sat, 23 Dec 2023 UTC via an FALCON 9 launch vehicle from the Air Force Eastern Test Range (AFETR). Payload-class satellites include a variety of spacecraft equipped with specific instruments for various scientific and technological missions. These include communications satellites like Starlink; space stations such as the ISS; scientific satellites like the Hubble; Earth observation satellites from companies like Planet Labs, Umbra, and HawkEye 360; GPS; miniature CubeSats for education and research; and military/defense satellites.

Loading next visibility...
Identifier
58636, 2023-203U
Orbit
LEO
Country
Flag of USUS
Related business
Manufacturer
SpaceX/Seattle
Mission
Operational Commercial Communications
Bus & Motor
STARLINK V2M, Unknown motor
Mass
730 kg wet, ~700 kg dry
Launch date (UTC)
2023-12-23 (2 years ago)
Launch vehicle
FALCON 9
Launch site
Air Force Eastern Test Range (AFETR)
Object type
Payload
Rocket body
Debris
Shape & HBR
Box + 2 Pan, 17.7 m
Radar Cross Section
33.884 m², Large (>1 m²)

Expand to show TLE details & history
Last TLE update: 2 days ago

TLE from 2 days ago
0 STARLINK-31008
1 58636U 23203U   26171.45159306  .00000819  00000-0  39293-4 0  9996
2 58636  43.0007 207.0815 0001272 271.7628  88.3078 15.27579131140507
Epoch: 2026-06-20T10:50Z
TLE epoch observation values (Epoch: 2026-06-20T10:50:17.640Z)
Latitude
-0.00001°
Longitude
135.84196°
Altitude
482.802 km
Speed
7.626 km/s
True Right ascension
13h 48m 19s
True Declination
0° 00' 00"
Sunlit
Object was in full shadow at epoch
Visualization orbit readout
Latitude
Unknown
Longitude
Unknown
Altitude
Unknown
Speed
Unknown
Apparent Right ascension
Unknown
Apparent Declination
Unknown
Sunlit
N/A
Visualization observer readout
Local Sidereal Time
21:26:08
Azimuth
Unknown
Elevation
Unknown
Doppler factor
Unknown
Orbital elements
Apogee altitude
485.87 km
Perigee altitude
484.124 km
Semi-major axis
6,863.134 km
Eccentricity
0.00013
Inclination
43.0007°
RAAN
207.0815°
Arg. of periapsis
271.7628°
True anomaly
88.32237°
Mean anomaly
88.3078°
Eccentric anomaly
88.31508°
Mean motion
3.81733 °/min
Orbital period
94.31 mins
BSTAR
0.000039293
Loading maneuver chart data...
Computing Atmospheric mass density...
Loading historical data...
Loading historical data...
Loading historical data...
Loading historical data...
Loading historical data...
Loading historical data...
Loading historical data...

Documentation

Showing up to 5 results
|